Location: Regona
(45.2000°N, 9.8167°E)
Time: 22:09:22
(UTC+00:00)

STARLINK-1299 - Pass Details

Date: 07 June 2020
Orbit: 568 x 571 km, 53.0° (Epoch: 14 July)

Event Time Altitude Azimuth Distance (km) Brightness Sun altitude
Exits shadow 01:24:13 30° 234° (SW) 1,039 4.5 -16.3°
Maximum altitude 01:26:17 87° 149° (SSE) 575 3.6 -16.2°
Drops below altitude 10° 01:30:34 10° 58° (ENE) 1,875 7.3 -15.8°
Sets 01:32:49 0° 58° (ENE) 2,775 8.4 -15.6°
